This demonstration page uses our WeatherBlox Daily Observations layout. Learn more.

Hourly Observations for August 13, 2019

Temp ( °F °C ) Dew Point ( °F °C ) Humidity (%) Winds ( mph kmh ) Pressure ( in mb ) Visibility ( mi km ) Precip ( " mm )
12:15 am 00:15 Partly Cloudy 81 27 70 21 70 70 SSW 7 11 29.88 1012 10 16.09344 0 0
12:35 am 00:35 Partly Cloudy 81 27 70 21 70 70 SSW 7 11 29.88 1012 10 16.09344 0 0
12:55 am 00:55 Clear 81 27 70 21 70 70 SSW 7 11 29.88 1012 10 16.09344 0 0
1:15 am 01:15 Clear 81 27 70 21 70 70 SSW 5 7 29.88 1012 10 16.09344 0 0
1:35 am 01:35 Clear 81 27 70 21 70 70 S 5 7 29.88 1012 10 16.09344 0 0
1:55 am 01:55 Clear 81 27 70 21 70 70 SSW 5 7 29.88 1012 10 16.09344 0 0
2:15 am 02:15 Clear 79 26 68 20 70 70 SSW 5 7 29.88 1012 10 16.09344 0 0
2:35 am 02:35 Clear 79 26 68 20 70 70 SSW 5 7 29.88 1012 10 16.09344 0 0
2:55 am 02:55 Clear 79 26 70 21 74 74 SW 5 7 29.88 1012 10 16.09344 0 0
3:15 am 03:15 Partly Cloudy 79 26 70 21 74 74 SSW 6 9 29.88 1012 10 16.09344 0 0
3:35 am 03:35 Partly Cloudy 77 25 70 21 79 79 SSW 3 6 29.85 1011 10 16.09344 0 0
3:55 am 03:55 Partly Cloudy 77 25 70 21 79 79 S 6 9 29.85 1011 10 16.09344 0 0
4:15 am 04:15 Partly Cloudy 77 25 70 21 79 79 S 6 9 29.85 1011 10 16.09344 0 0
4:35 am 04:35 Partly Cloudy 77 25 70 21 79 79 SW 3 6 29.85 1011 10 16.09344 0 0
4:55 am 04:55 Cloudy 77 25 70 21 79 79 S 6 9 29.85 1011 10 16.09344 0 0
5:15 am 05:15 Cloudy 77 25 70 21 79 79 SSW 6 9 29.83 1010 10 16.09344 0 0
5:35 am 05:35 Cloudy 77 25 70 21 79 79 S 7 11 29.83 1010 10 16.09344 0 0
5:55 am 05:55 Cloudy 77 25 70 21 79 79 SSW 3 6 29.83 1010 10 16.09344 0 0
6:15 am 06:15 Cloudy 77 25 70 21 79 79 Calm 29.83 1010 10 16.09344 0 0
6:35 am 06:35 Cloudy 75 24 70 21 83 83 Calm 29.85 1011 10 16.09344 0 0
6:55 am 06:55 Cloudy 75 24 70 21 83 83 Calm 29.85 1011 10 16.09344 0 0
7:15 am 07:15 Cloudy 77 25 70 21 79 79 SSE 5 7 29.83 1010 10 16.09344 0 0
7:35 am 07:35 Cloudy 75 24 70 21 83 83 SW 3 6 29.85 1011 10 16.09344 0 0
7:55 am 07:55 Cloudy 77 25 70 21 79 79 SSW 3 6 29.85 1011 10 16.09344 0 0
8:15 am 08:15 Cloudy 77 25 70 21 79 79 S 3 6 29.85 1011 10 16.09344 0 0
8:35 am 08:35 Cloudy 77 25 70 21 79 79 S 5 7 29.85 1011 10 16.09344 0 0
8:55 am 08:55 Cloudy 77 25 70 21 79 79 S 3 6 29.85 1011 10 16.09344 0 0
9:15 am 09:15 Cloudy 77 25 70 21 79 79 Calm 29.85 1011 10 16.09344 0 0
9:35 am 09:35 Mostly Cloudy 77 25 70 21 79 79 Calm 29.85 1011 10 16.09344 0 0
9:55 am 09:55 Cloudy 77 25 72 22 83 83 S 3 6 29.85 1011 10 16.09344 0 0
10:15 am 10:15 Cloudy 79 26 72 22 79 79 S 3 6 29.85 1011 10 16.09344 0 0
10:35 am 10:35 Cloudy 79 26 72 22 79 79 SSW 5 7 29.85 1011 10 16.09344 0 0
10:55 am 10:55 Cloudy 77 25 72 22 83 83 WSW 3 6 29.85 1011 7 11.265408 0 0
11:15 am 11:15 Cloudy 77 25 73 23 89 89 W 3 6 29.88 1012 5 8.04672 0.01 0.254
11:35 am 11:35 Cloudy 73 23 73 23 100 100 Calm 29.88 1012 7 11.265408 0.02 0.508
11:55 am 11:55 Cloudy 75 24 73 23 94 94 Calm 29.88 1012 10 16.09344 0.03 0.762
12:15 pm 12:15 Mostly Cloudy 77 25 73 23 89 89 S 3 6 29.85 1011 10 16.09344 0 0
12:35 pm 12:35 Cloudy 77 25 73 23 89 89 Calm 29.85 1011 10 16.09344 0 0
12:55 pm 12:55 Cloudy 77 25 75 24 94 94 SE 5 7 29.83 1010 10 16.09344 0 0
1:15 pm 13:15 Partly Cloudy 79 26 75 24 89 89 Calm 29.83 1010 10 16.09344 0 0
1:35 pm 13:35 Mostly Cloudy 79 26 73 23 84 84 Calm 29.83 1010 10 16.09344 0 0
1:55 pm 13:55 Mostly Cloudy 79 26 75 24 89 89 Calm 29.83 1010 10 16.09344 0 0
2:15 pm 14:15 Mostly Cloudy 81 27 75 24 84 84 Calm 29.83 1010 10 16.09344 0 0
2:35 pm 14:35 Cloudy 81 27 75 24 84 84 Calm 29.8 1009 10 16.09344 0 0
2:55 pm 14:55 Mostly Cloudy 82 28 73 23 74 74 Calm 29.8 1009 10 16.09344 0 0
3:15 pm 15:15 Mostly Cloudy 82 28 73 23 74 74 WNW 3 6 29.8 1009 10 16.09344 0 0
3:35 pm 15:35 Mostly Cloudy 84 29 75 24 74 74 Calm 29.77 1008 10 16.09344 0 0
3:55 pm 15:55 Mostly Cloudy 82 28 75 24 79 79 WSW 5 7 29.8 1009 10 16.09344 0 0
4:15 pm 16:15 Partly Cloudy 82 28 73 23 74 74 Calm 29.8 1009 10 16.09344 0 0
4:35 pm 16:35 Sunny 82 28 73 23 74 74 Calm 29.74 1007 10 16.09344 0 0
4:55 pm 16:55 Sunny 82 28 73 23 74 74 Calm 29.74 1007 10 16.09344 0 0
5:15 pm 17:15 Sunny 86 30 75 24 70 70 Calm 29.74 1007 10 16.09344 0 0
5:35 pm 17:35 Partly Cloudy 84 29 75 24 74 74 ENE 6 9 29.74 1007 10 16.09344 0 0
5:55 pm 17:55 Partly Cloudy 84 29 75 24 74 74 ESE 6 9 29.74 1007 10 16.09344 0 0
6:15 pm 18:15 Sunny 84 29 75 24 74 74 SE 6 9 29.74 1007 10 16.09344 0 0
6:35 pm 18:35 Partly Cloudy 84 29 77 25 79 79 ESE 6 9 29.74 1007 10 16.09344 0 0
6:55 pm 18:55 Sunny 82 28 77 25 84 84 ENE 7 11 29.74 1007 10 16.09344 0 0
7:15 pm 19:15 Partly Cloudy 82 28 77 25 84 84 ENE 7 11 29.74 1007 10 16.09344 0 0
7:35 pm 19:35 Partly Cloudy 81 27 77 25 89 89 E 5 7 29.77 1008 10 16.09344 0 0
7:55 pm 19:55 Partly Cloudy 81 27 77 25 89 89 Calm 29.77 1008 10 16.09344 0 0
8:15 pm 20:15 Partly Cloudy 81 27 77 25 89 89 E 3 6 29.77 1008 10 16.09344 0 0
8:35 pm 20:35 Mostly Cloudy with Nearby Thunderstorms 81 27 77 25 89 89 E 3 6 29.77 1008 10 16.09344 0 0
8:55 pm 20:55 Mostly Cloudy 81 27 77 25 89 89 SW 6 9 29.8 1009 10 16.09344 0 0
9:15 pm 21:15 Cloudy 77 25 77 25 100 100 W 7 11 29.8 1009 5 8.04672 0.01 0.254
9:35 pm 21:35 Cloudy 77 25 77 25 100 100 SSW 13 20 29.8 1009 4 6.437376 0.11 2.794
9:55 pm 21:55 Cloudy 77 25 77 25 100 100 S 8 13 29.8 1009 7 11.265408 0.11 2.794
10:15 pm 22:15 Mostly Cloudy 73 23 73 23 100 100 Calm 29.8 1009 10 16.09344 0.01 0.254
10:35 pm 22:35 Cloudy 73 23 73 23 100 100 Calm 29.8 1009 10 16.09344 0.01 0.254
10:55 pm 22:55 Cloudy 73 23 73 23 100 100 WNW 5 7 29.8 1009 10 16.09344 0.01 0.254
11:15 pm 23:15 Mostly Cloudy 73 23 73 23 100 100 SW 3 6 29.8 1009 10 16.09344 0 0
11:35 pm 23:35 Mostly Cloudy 73 23 73 23 100 100 E 5 7 29.8 1009 10 16.09344 0 0
11:55 pm 23:55 Cloudy 72 22 72 22 100 100 Calm 29.8 1009 10 16.09344 0 0

Powered by AerisWeather